HCCOW SEGU-SEMT

Flight info

Callsign HCCOW
Flight time 0h 36m
Altitude 8000
Route RENAR2A RENAR RENAR1
Aircraft BE58/L-SDFGRY/C

Departure

Time 2026-04-20 03:00
Airport José Joaquín de Olmedo International Airport (SEGU)

Arrival

Time 2026-04-20 03:37
Airport Eloy Alfaro International Airport (SEMT)
Time Latitude Longitude Altitude Speed Heading
2026-04-20 02:48 -2.16522 -79.89098 23 ft 0 kts 29°
2026-04-20 02:55 -2.16521 -79.89097 23 ft 1 kts 30°
2026-04-20 02:56 -2.16509 -79.89066 23 ft 10 kts 109°
2026-04-20 02:56 -2.16550 -79.88977 23 ft 16 kts 116°
2026-04-20 02:56 -2.16507 -79.88916 22 ft 13 kts 31°
2026-04-20 02:56 -2.16431 -79.88872 23 ft 13 kts 28°
2026-04-20 02:57 -2.16347 -79.88824 22 ft 14 kts 29°
2026-04-20 02:57 -2.16260 -79.88773 22 ft 15 kts 28°
2026-04-20 02:57 -2.16171 -79.88722 23 ft 15 kts 30°
2026-04-20 02:57 -2.16079 -79.88669 23 ft 16 kts 30°
2026-04-20 02:58 -2.15983 -79.88615 23 ft 16 kts 27°
2026-04-20 02:58 -2.15884 -79.88560 23 ft 16 kts 35°
2026-04-20 02:58 -2.15780 -79.88499 23 ft 20 kts 29°
2026-04-20 02:58 -2.15650 -79.88421 22 ft 24 kts 31°
2026-04-20 02:59 -2.15493 -79.88333 22 ft 28 kts 31°
2026-04-20 02:59 -2.15321 -79.88233 22 ft 23 kts 31°
2026-04-20 02:59 -2.15311 -79.88142 22 ft 14 kts 136°
2026-04-20 02:59 -2.15362 -79.88147 21 ft 0 kts 208°
2026-04-20 03:00 -2.15397 -79.88167 21 ft 34 kts 210°
2026-04-20 03:00 -2.15833 -79.88411 55 ft 101 kts 207°
2026-04-20 03:00 -2.16466 -79.88758 512 ft 100 kts 208°
2026-04-20 03:00 -2.17081 -79.89066 942 ft 95 kts 226°
2026-04-20 03:01 -2.17362 -79.89641 1343 ft 98 kts 257°
2026-04-20 03:01 -2.17201 -79.90359 1628 ft 120 kts 304°
2026-04-20 03:01 -2.16470 -79.90865 1939 ft 137 kts 332°
2026-04-20 03:01 -2.15593 -79.91329 2237 ft 147 kts 330°
2026-04-20 03:02 -2.14674 -79.91836 2530 ft 154 kts 330°
2026-04-20 03:02 -2.13723 -79.92361 2816 ft 158 kts 331°
2026-04-20 03:02 -2.12751 -79.92899 3103 ft 161 kts 332°
2026-04-20 03:02 -2.11772 -79.93443 3371 ft 161 kts 332°
2026-04-20 03:03 -2.10791 -79.93989 3636 ft 161 kts 332°
2026-04-20 03:03 -2.09810 -79.94534 3902 ft 162 kts 332°
2026-04-20 03:03 -2.08833 -79.95076 4167 ft 162 kts 332°
2026-04-20 03:03 -2.07847 -79.95624 4432 ft 162 kts 332°
2026-04-20 03:04 -2.06867 -79.96169 4700 ft 161 kts 332°
2026-04-20 03:04 -2.05890 -79.96712 4959 ft 160 kts 332°
2026-04-20 03:04 -2.04922 -79.97251 5223 ft 159 kts 332°
2026-04-20 03:04 -2.03954 -79.97788 5491 ft 158 kts 332°
2026-04-20 03:05 -2.02997 -79.98319 5758 ft 156 kts 332°
2026-04-20 03:05 -2.02050 -79.98846 6024 ft 155 kts 332°
2026-04-20 03:05 -2.01118 -79.99363 6285 ft 152 kts 332°
2026-04-20 03:05 -2.00205 -79.99871 6532 ft 149 kts 332°
2026-04-20 03:06 -1.99309 -80.00369 6780 ft 145 kts 332°
2026-04-20 03:06 -1.98437 -80.00854 7030 ft 141 kts 332°
2026-04-20 03:06 -1.97589 -80.01326 7277 ft 138 kts 332°
2026-04-20 03:06 -1.96759 -80.01786 7526 ft 134 kts 331°
2026-04-20 03:07 -1.95957 -80.02231 7777 ft 130 kts 331°
2026-04-20 03:07 -1.95441 -80.02519 7938 ft 127 kts 331°
2026-04-20 03:07 -1.94352 -80.03123 8000 ft 141 kts 331°
2026-04-20 03:07 -1.93478 -80.03607 8006 ft 149 kts 331°
2026-04-20 03:08 -1.92549 -80.04123 8007 ft 155 kts 331°
2026-04-20 03:08 -1.91591 -80.04655 8003 ft 159 kts 331°
2026-04-20 03:08 -1.90618 -80.05195 8008 ft 161 kts 331°
2026-04-20 03:08 -1.89628 -80.05745 8012 ft 163 kts 331°
2026-04-20 03:09 -1.88637 -80.06296 8011 ft 164 kts 331°
2026-04-20 03:09 -1.87636 -80.06852 8008 ft 164 kts 331°
2026-04-20 03:09 -1.86638 -80.07407 8001 ft 165 kts 331°
2026-04-20 03:09 -1.85647 -80.07957 8002 ft 165 kts 331°
2026-04-20 03:10 -1.84644 -80.08514 8004 ft 165 kts 331°
2026-04-20 03:10 -1.83644 -80.09074 8003 ft 165 kts 330°
2026-04-20 03:10 -1.82642 -80.09634 8000 ft 165 kts 331°
2026-04-20 03:10 -1.81639 -80.10189 8001 ft 165 kts 331°
2026-04-20 03:11 -1.80637 -80.10746 7999 ft 165 kts 331°
2026-04-20 03:11 -1.79632 -80.11303 8000 ft 165 kts 331°
2026-04-20 03:11 -1.78629 -80.11860 8000 ft 165 kts 331°
2026-04-20 03:11 -1.77625 -80.12418 8002 ft 165 kts 331°
2026-04-20 03:12 -1.76623 -80.12974 8004 ft 165 kts 331°
2026-04-20 03:12 -1.75618 -80.13533 8002 ft 165 kts 331°
2026-04-20 03:12 -1.74616 -80.14090 8005 ft 165 kts 331°
2026-04-20 03:12 -1.73613 -80.14646 8003 ft 165 kts 331°
2026-04-20 03:13 -1.72607 -80.15205 8003 ft 165 kts 331°
2026-04-20 03:13 -1.71605 -80.15760 8001 ft 165 kts 331°
2026-04-20 03:13 -1.70613 -80.16311 8004 ft 165 kts 331°
2026-04-20 03:13 -1.69611 -80.16867 8005 ft 165 kts 331°
2026-04-20 03:14 -1.68607 -80.17426 8008 ft 165 kts 331°
2026-04-20 03:14 -1.67604 -80.17982 8006 ft 165 kts 331°
2026-04-20 03:14 -1.66599 -80.18540 8006 ft 165 kts 331°
2026-04-20 03:14 -1.65595 -80.19097 8007 ft 165 kts 331°
2026-04-20 03:15 -1.64588 -80.19657 8006 ft 165 kts 331°
2026-04-20 03:15 -1.63910 -80.20034 8005 ft 165 kts 331°
2026-04-20 03:15 -1.62921 -80.20583 8007 ft 165 kts 331°
2026-04-20 03:15 -1.61579 -80.21328 8008 ft 165 kts 331°
2026-04-20 03:16 -1.60913 -80.21697 8010 ft 165 kts 331°
2026-04-20 03:16 -1.59911 -80.22253 8010 ft 165 kts 331°
2026-04-20 03:16 -1.58909 -80.22811 8005 ft 165 kts 331°
2026-04-20 03:16 -1.57906 -80.23367 8006 ft 165 kts 331°
2026-04-20 03:17 -1.56895 -80.23899 8004 ft 164 kts 338°
2026-04-20 03:17 -1.55845 -80.24288 8007 ft 160 kts 340°
2026-04-20 03:17 -1.54795 -80.24685 8002 ft 162 kts 339°
2026-04-20 03:17 -1.53751 -80.25082 8008 ft 163 kts 339°
2026-04-20 03:18 -1.52689 -80.25485 8009 ft 164 kts 339°
2026-04-20 03:18 -1.51623 -80.25890 8007 ft 164 kts 339°
2026-04-20 03:18 -1.50556 -80.26295 8011 ft 164 kts 339°
2026-04-20 03:18 -1.49486 -80.26698 8011 ft 165 kts 339°
2026-04-20 03:19 -1.48407 -80.27107 8009 ft 165 kts 339°
2026-04-20 03:19 -1.47331 -80.27515 8014 ft 165 kts 339°
2026-04-20 03:19 -1.46255 -80.27924 8014 ft 165 kts 339°
2026-04-20 03:19 -1.45180 -80.28332 8014 ft 165 kts 339°
2026-04-20 03:20 -1.44105 -80.28739 8016 ft 165 kts 339°
2026-04-20 03:20 -1.43029 -80.29148 8018 ft 165 kts 339°
2026-04-20 03:20 -1.41952 -80.29557 8015 ft 165 kts 339°
2026-04-20 03:20 -1.40875 -80.29965 8015 ft 165 kts 339°
2026-04-20 03:21 -1.39798 -80.30374 8018 ft 165 kts 339°
2026-04-20 03:21 -1.38725 -80.30781 8020 ft 165 kts 339°
2026-04-20 03:21 -1.37651 -80.31189 8020 ft 165 kts 339°
2026-04-20 03:21 -1.36584 -80.31593 8020 ft 163 kts 339°
2026-04-20 03:22 -1.35518 -80.31997 8016 ft 164 kts 339°
2026-04-20 03:22 -1.34465 -80.32398 8014 ft 164 kts 339°
2026-04-20 03:22 -1.33392 -80.32805 8011 ft 164 kts 339°
2026-04-20 03:22 -1.32325 -80.33209 8099 ft 158 kts 339°
2026-04-20 03:23 -1.31285 -80.33603 8008 ft 166 kts 339°
2026-04-20 03:23 -1.30176 -80.34024 7851 ft 175 kts 339°
2026-04-20 03:23 -1.29017 -80.34463 7697 ft 181 kts 339°
2026-04-20 03:23 -1.27825 -80.34915 7541 ft 186 kts 339°
2026-04-20 03:24 -1.26605 -80.35378 7383 ft 189 kts 339°
2026-04-20 03:24 -1.25365 -80.35848 7224 ft 192 kts 340°
2026-04-20 03:24 -1.24110 -80.36323 7068 ft 194 kts 340°
2026-04-20 03:24 -1.22841 -80.36805 6909 ft 196 kts 340°
2026-04-20 03:25 -1.21560 -80.37291 6717 ft 199 kts 340°
2026-04-20 03:25 -1.20252 -80.37787 6489 ft 204 kts 340°
2026-04-20 03:25 -1.18912 -80.38295 6262 ft 207 kts 340°
2026-04-20 03:25 -1.17561 -80.38807 6020 ft 210 kts 340°
2026-04-20 03:26 -1.16172 -80.39334 5778 ft 212 kts 340°
2026-04-20 03:26 -1.14779 -80.39862 5535 ft 215 kts 340°
2026-04-20 03:26 -1.13410 -80.40381 5304 ft 217 kts 340°
2026-04-20 03:26 -1.11987 -80.40916 5067 ft 219 kts 340°
2026-04-20 03:27 -1.10576 -80.41450 5005 ft 213 kts 340°
2026-04-20 03:27 -1.09211 -80.41967 4998 ft 207 kts 340°
2026-04-20 03:27 -1.07878 -80.42471 4993 ft 203 kts 340°
2026-04-20 03:27 -1.06565 -80.42967 4992 ft 201 kts 340°
2026-04-20 03:28 -1.05268 -80.43460 4994 ft 198 kts 340°
2026-04-20 03:28 -1.03979 -80.43946 4990 ft 197 kts 340°
2026-04-20 03:28 -1.01412 -80.44917 5002 ft 197 kts 340°
2026-04-20 03:29 -1.00125 -80.45404 5002 ft 197 kts 340°
2026-04-20 03:29 -0.98842 -80.45889 5001 ft 197 kts 340°
2026-04-20 03:29 -0.97557 -80.46375 5000 ft 197 kts 340°
2026-04-20 03:29 -0.96273 -80.46860 4998 ft 197 kts 340°
2026-04-20 03:30 -0.95002 -80.47341 4956 ft 200 kts 340°
2026-04-20 03:30 -0.93678 -80.47841 4790 ft 206 kts 340°
2026-04-20 03:30 -0.92323 -80.48353 4629 ft 210 kts 340°
2026-04-20 03:30 -0.90997 -80.48985 4458 ft 213 kts 327°
2026-04-20 03:31 -0.89775 -80.49833 4291 ft 214 kts 327°
2026-04-20 03:31 -0.88534 -80.50669 4119 ft 215 kts 327°
2026-04-20 03:31 -0.87366 -80.51560 3949 ft 202 kts 314°
2026-04-20 03:31 -0.86615 -80.52668 3694 ft 185 kts 296°
2026-04-20 03:32 -0.86262 -80.53859 3497 ft 172 kts 278°
2026-04-20 03:32 -0.86257 -80.54984 3489 ft 154 kts 263°
2026-04-20 03:32 -0.86508 -80.55966 3488 ft 138 kts 249°
2026-04-20 03:32 -0.86934 -80.56773 3474 ft 126 kts 236°
2026-04-20 03:33 -0.87440 -80.57479 3377 ft 126 kts 232°
2026-04-20 03:33 -0.87989 -80.58173 3253 ft 132 kts 233°
2026-04-20 03:33 -0.88545 -80.58895 3195 ft 129 kts 233°
2026-04-20 03:33 -0.89058 -80.59618 3068 ft 128 kts 238°
2026-04-20 03:34 -0.89544 -80.60384 2871 ft 131 kts 239°
2026-04-20 03:34 -0.90038 -80.61127 2678 ft 124 kts 237°
2026-04-20 03:34 -0.90488 -80.61809 2449 ft 114 kts 237°
2026-04-20 03:34 -0.90917 -80.62473 2106 ft 113 kts 235°
2026-04-20 03:35 -0.91357 -80.63120 1749 ft 113 kts 237°
2026-04-20 03:35 -0.91821 -80.63750 1382 ft 113 kts 233°
2026-04-20 03:35 -0.92252 -80.64402 1045 ft 110 kts 241°
2026-04-20 03:35 -0.92614 -80.65000 813 ft 91 kts 234°
2026-04-20 03:36 -0.92967 -80.65489 494 ft 83 kts 233°
2026-04-20 03:36 -0.93273 -80.65948 262 ft 76 kts 233°
2026-04-20 03:36 -0.93590 -80.66390 178 ft 86 kts 233°
2026-04-20 03:36 -0.93913 -80.66869 115 ft 88 kts 235°
2026-04-20 03:37 -0.94209 -80.67286 50 ft 59 kts 232°
2026-04-20 03:37 -0.94409 -80.67580 42 ft 46 kts 242°
2026-04-20 03:37 -0.94565 -80.67821 37 ft 39 kts 235°
2026-04-20 03:37 -0.94729 -80.68048 38 ft 41 kts 236°
2026-04-20 03:38 -0.94882 -80.68273 39 ft 22 kts 220°
2026-04-20 03:38 -0.94978 -80.68371 38 ft 24 kts 194°
2026-04-20 03:38 -0.95140 -80.68412 37 ft 21 kts 218°
2026-04-20 03:38 -0.95179 -80.68393 38 ft 8 kts 107°
2026-04-20 03:39 -0.95215 -80.68368 38 ft 4 kts 197°
2026-04-20 03:39 -0.95223 -80.68378 38 ft 0 kts 235°